Location: B?dargowo
(53.3916°N, 14.4413°E)
Time: 10:22:34
(UTC+00:00)

Cosmos 1844 Rocket - Visible Passes

Search period start: 28 September 2023 00:00
Search period end: 08 October 2023 00:00
Orbit: 825 x 843 km, 71.0° (Epoch: 27 September)

Date Brightness Start Highest point End Pass type
(mag) Time Alt. Az. Time Alt. Az. Time Alt. Az.
28 Sep 4.7 17:29:37 10° NW 17:34:30 32° WSW 17:39:22 10° SSW visible
29 Sep 4.6 17:12:13 10° NW 17:17:12 34° WSW 17:22:10 10° S visible
05 Oct 6.4 17:15:32 10° W 17:16:00 10° W 17:16:29 10° W visible
07 Oct 5.7 04:25:19 10° SE 04:28:51 17° E 04:32:23 10° ENE visible
